Regional Weather Roundup
Issued by NWS Raleigh/Durham, NC

Home | Current Version | Previous Version | Text Only | Print | Product List | Glossary On
Versions: 1 2 3 4 5 6 7 8 9 10 11 12 13 14 15 16 17 18 19 20 21 22 23 24 25 26 27 28 29 30 31 32 33 34 35 36 37 38 39 40 41 42 43 44 45 46 47 48 49 50
000
ASUS42 KRAH 202310
RWRRAH
NORTH CAROLINA WEATHER ROUNDUP
NATIONAL WEATHER SERVICE RALEIGH NC
700 PM EDT WED AUG 20 2014

NOTE: "FAIR" INDICATES FEW OR NO CLOUDS BELOW 12,000 FEET WITH NO
SIGNIFICANT WEATHER AND/OR OBSTRUCTIONS TO VISIBILITY.

NCZ001-053-055-056-065-067-210000-
WESTERN NORTH CAROLINA

CITY           SKY/WX    TMP DP  RH WIND       PRES   REMARKS
ASHEVILLE      CLOUDY    75  64  68 CALM      30.10R
JEFFERSON      PTSUNNY   76  61  59 W7        30.13S
MORGANTON      MOSUNNY   82  68  60 CALM      30.06S
HICKORY        MOSUNNY   83  68  60 SW7       30.01R
RUTHERFORDTON  CLOUDY    77  73  87 CALM      30.02F
MOUNT AIRY     PTSUNNY   84  74  72 CALM      30.02R
BOONE          MOSUNNY   76  63  62 W6        30.15S
$$

NCZ021-022-025-041-071-084-088-210000-
CENTRAL NORTH CAROLINA

CITY           SKY/WX    TMP DP  RH WIND       PRES   REMARKS
CHARLOTTE      MOSUNNY   86  71  60 W3        29.99S
GREENSBORO     MOSUNNY   85  69  58 SW9       29.98R
WINSTON-SALEM  SUNNY     86  68  54 VRB5      29.99S
RALEIGH-DURHAM MOSUNNY   79  70  74 VRB3      29.97R
FORT BRAGG     SUNNY     86  73  66 E1        29.95S
FAYETTEVILLE   SUNNY     89  71  55 SW6       29.95S HX  95
BURLINGTON     MOSUNNY   87  70  56 S5        29.97R
LAURINBURG     SUNNY     86  74  67 S5        29.96R
$$

NCZ011-015-027-028-043-044-047-080-103-210000-
NORTHEASTERN NORTH CAROLINA

CITY           SKY/WX    TMP DP  RH WIND       PRES   REMARKS
ROCKY MT-WILSO MOSUNNY   79  75  87 CALM      29.96F
GREENVILLE     PTCLDY    86  73  66 CALM      29.98S
WASHINGTON     MOCLDY    85  71  62 CALM      29.96F
ELIZABETH CITY PTCLDY    80  71  74 E6        29.98S
MANTEO         PTCLDY    79  72  78 E8        29.98F
CAPE HATTERAS  PTCLDY    78  72  81 E3        29.98R
$$

NCZ078-087-090-091-093-098-101-210000-
SOUTHEASTERN NORTH CAROLINA

CITY           SKY/WX    TMP DP  RH WIND       PRES   REMARKS
LUMBERTON      SUNNY     86  76  71 SE5       29.95S HX  96
GOLDSBORO      SUNNY     87  77  71 SE3       29.94S HX  99
KINSTON        CLEAR     86  72  62 E5        29.96F
KENANSVILLE    PTSUNNY   82  73  76 CALM      29.97S
NEW BERN       MOCLDY    85  75  72 SW7       29.98S
CHERRY POINT   NOT AVBL
BEAUFORT       CLOUDY    83  75  77 SW10      29.97F
JACKSONVILLE   MOCLDY    83  75  77 SW6       29.96F
WILMINGTON     PTCLDY    83  76  79 CALM      29.97S
$$




USA.gov is the U.S. government's official web portal to all federal, state and local government web resources and services.